Weather in Itō

Japan     34°56′35″N   139°05′39″E
temp.,
°C
wind,
m/s
gust,
m/s
humid.,
%
clouds,
%
prec.,
mm/h
press.,
hPa
HPBL,
m
14 april, wed
wed1400:00+13sw1298100 2.8 101285
03:00+14wsw2298100 4.3 100992
06:00+15wsw2299100 4.9 100769
09:00+15wsw2399100 9.3 1006140
12:00+16wsw1299100 0.7 1003159
15:00+20wnw157064 0.7 1001947
18:00+15e5793100 0.0 1004384
21:00+12e71194100 0.3 1009861
15 april, thu
thu1500:00+9e798982 0.7 1013800
03:00+7ene687698 0.7 1016849
06:00+7ene5673100 0.0 1019810
09:00+7e5566100 0.0 1022905
12:00+10e4352100 0.0 10221004
15:00+11e22509 0.0 1021890
18:00+9se356690 0.0 1024365
21:00+8se2471100 0.0 1027411
16 april, fri
fri1600:00+9e1271100 0.0 1027257
03:00+8ene227278 0.0 1026124
06:00+9ne247595 0.0 1027233
09:00+12e566594 0.1 10271347
12:00+13e4567100 0.3 10261260
15:00+12ese357598 0.5 1025968
18:00+11ese258094 0.2 1026376
21:00+11se1282100 0.4 1026158
17 april, sat
sat1700:00+11se1286100 0.3 1025137
03:00+11e118999 0.6 102366
06:00+12se1291100 0.3 1022114
09:00+13se2588100 0.6 1020419
12:00+12ne0196100 2.9 1017109
15:00+13n1299100 13.1 1013160
18:00+12w3599100 26.3 1012235
21:00+12ssw1198100 27.4 100974
18 april, sun
sun1800:00+12wsw21098100 0.0 1007659
03:00+12wsw8159112 0.0 1005741
06:00+11wsw614790 0.0 1005727
09:00+14wsw813530 0.0 10041046
12:00+16wsw1112450 0.0 10041439
15:00+15wsw1215470 0.0 10031368
18:00+10wsw1014610 0.0 1006697
21:00+8wsw49660 0.0 1008313